Location: Caracas
(10.5000°N, 66.9170°W)
Time: 21:06:23
(UTC-04:00)

Tiangong 2 - Visible Passes

Search period start: 21 April 2018 00:00
Search period end: 01 May 2018 00:00
Orbit: 382 x 387 km, 42.8° (Epoch: 21 April)

Date Brightness Start Highest point End Pass type
(mag) Time Alt. Az. Time Alt. Az. Time Alt. Az.
22 Apr 3.9 19:23:56 10° WSW 19:25:36 14° SW 19:27:17 10° SSW visible
26 Apr 3.4 05:35:38 10° S 05:38:04 20° SE 05:40:29 10° E visible
28 Apr 1.5 05:13:47 22° SSW 05:15:35 58° SE 05:18:42 10° NE visible
29 Apr 4.0 04:17:30 15° E 04:17:30 15° E 04:18:31 10° E visible
30 Apr 1.7 04:53:22 42° NNW 04:53:22 42° NNW 04:56:09 10° NNE visible
